Air Resources Laboratory banner image
Air Resources Laboratory web site National Oceanic and Atmospheric Administration (NOAA)

ma roundup


Office: BOX

ASUS41 KBOX 191310
RWRBOX

REGIONAL WEATHER ROUNDUP
NATIONAL WEATHER SERVICE TAUNTON MA
800 AM EST MON FEB 19 2018

NOTE:  "FAIR" INDICATES FEW OR NO CLOUDS BELOW 12,000 FEET WITH NO
SIGNIFICANT WEATHER AND/OR OBSTRUCTIONS TO VISIBILITY.

MAZALL-191400-
EASTERN MASSACHUSETTS

CITY           SKY/WX    TMP DP  RH WIND       PRES   REMARKS
BOSTON         FAIR      31  26  82 S6        30.56S WCI  25
BEVERLY        FAIR      24  22  91 S5        30.54F WCI  18
LAWRENCE       FAIR      25  22  88 SW3       30.55F
BEDFORD        FAIR      20  19  96 CALM      30.53F
BLUE HILL        N/A     32  23  69 S16       30.51F WCI  21
NORWOOD        FAIR      27  25  92 CALM      30.55F
MARSHFIELD     FAIR      34  32  93 S6        30.57S WCI  29
PLYMOUTH       FAIR      32  29  88 VRB3      30.57F
TAUNTON        FAIR      30  28  92 CALM      30.56F
NEW BEDFORD    FAIR      31  30  96 CALM      30.56F
$$

MAZALL-191400-
CAPE COD AND THE ISLANDS

CITY           SKY/WX    TMP DP  RH WIND       PRES   REMARKS
FALMOUTH       FAIR      36  34  93 S8        30.59  WCI  29
HYANNIS        SUNNY    N/A N/A N/A S10       30.57S
CHATHAM        FAIR      40  35  83 S10G18    30.60S
PROVINCETOWN   FAIR      38  36  92 S12       30.58F WCI  30
NANTUCKET      FAIR      40  36  86 S12       30.60S
MARTHAS VNYRD  FAIR      23  17  78 S8        30.58F WCI  14
$$

MAZALL-191400-
CENTRAL AND WESTERN MASSACHUSETTS

CITY           SKY/WX    TMP DP  RH WIND       PRES   REMARKS
WORCESTER      FAIR      28  21  75 S10       30.49S WCI  19
FITCHBURG      FAIR      23  20  88 SE3       30.53F
ORANGE         FAIR      18  17  96 CALM      30.51F
SPRINGFIELD    MOSUNNY   19  17  91 CALM      30.51S
WESTFIELD      FAIR      20  20 100 CALM      30.52S
NORTH ADAMS    FAIR      27  17  66 E10G17    30.44F WCI  17
PITTSFIELD     FAIR      18  14  84 N3        30.42S
$$

RIZALL-191400-
RHODE ISLAND

CITY           SKY/WX    TMP DP  RH WIND       PRES   REMARKS
PROVIDENCE     FAIR      31  27  85 CALM      30.57F
NEWPORT        FAIR      37  34  89 S8        30.56F WCI  31
BLOCK ISLAND   FAIR      40  34  79 S12       30.57S
SMITHFIELD     FAIR      33  27  78 VRB5      30.53F WCI  29
WESTERLY       FAIR      31  28  89 CALM      30.57F
$$

CTZALL-191400-
CONNECTICUT

CITY           SKY/WX    TMP DP  RH WIND       PRES   REMARKS
BRADLEY INTL   FAIR      21  18  88 CALM      30.53R
HARTFORD       FAIR      26  23  88 NE5       30.54S WCI  20
BRIDGEPORT     FAIR      31  27  85 NE3       30.54S
DANBURY        FAIR     N/A N/A N/A CALM      30.52S
GROTON         FAIR      32  28  85 CALM      30.56S
NEW HAVEN      FAIR      29  29 100 CALM      30.54S
CHESTER        FAIR      36  30  80 S7        30.53S WCI  30
MERIDEN        FAIR      22  21  96 CALM      30.53F
WILLIMANTIC    FAIR      23  20  88 CALM      30.55F
OXFORD         FAIR      32  28  85 S9        30.50S WCI  24
$$

MEZ002-015-021-024-NHZ003-005-008-011-012-014-VTZ005-008-191400-
NORTHERN NEW ENGLAND

CITY           SKY/WX    TMP DP  RH WIND       PRES   REMARKS
PORTLAND ME    FAIR      21  18  88 CALM      30.53F
BANGOR ME      FAIR      13  12  96 CALM      30.53S
CONCORD NH     FAIR      18  17  96 CALM      30.51F
MANCHESTER NH  FAIR      21  18  88 CALM      30.51F
NASHUA NH      FAIR      20  18  92 E3        30.53F
PORTSMOUTH NH  MOSUNNY   22  20  93 CALM      30.52F
JAFFREY NH     FAIR      17  16  95 CALM      30.45F
KEENE NH       FAIR      16  15  96 CALM      30.49F
BURLINGTON VT  PTSUNNY   33  20  58 S17G29    30.35R WCI  22
MT. WASHINGTON MOSUNNY   18  -4  38 SW38G56     N/A  WCI  -4
$$

NYZ052-076-191400-
EASTERN NEW YORK

CITY           SKY/WX    TMP DP  RH WIND       PRES   REMARKS
ALBANY         FAIR      33  20  58 S13G24    30.43F WCI  24
NEW YORK CITY  PTSUNNY   40  36  86 S6        30.52S
$$

ANZALL-191400-
MARINE OBSERVATIONS

STATION/POSITION TIME  TEMP    WIND        PRES    VSBY  WAVE
                       AIR SEA DIR/SP/G                  HT/PER
                 (UTC) (F)     (DEG/KT/KT) (MB)    (MI)  (FT/S)
BOSTON BUOY      1150   36 39  180/ 12/ 14 1034.8          4/10
BUZZARDS BAY     1200   38     190/ 12/ 13 1035.9R
NANTUCKET SOUND  1150   38 39  180/ 12/ 14 1035.7          1/ 5
MASS BAY-STELLWA 1204   37 39              1033.9R         6/11
ISLE OF SHOALS   1200   35     220/  8/  9 1034.1R
S OF BLOCK IS    1243      39                N/A           3/ 7
$$

......................KEY.........................
  SKY/WX - SKY CONDITION/PRESENT WEATHER
  TMP    - TEMPERATURE IN FAHRENHEIT
  DWPT   - DEWPOINT IN FAHRENHEIT
  RH     - RELATIVE HUMIDITY IN PERCENT
  WIND   - DIRECTION AND SPEED IN MPH
  PRES   - MEAN SEA LEVEL PRESSURE IN INCHES OF HG
  WCI    - WIND CHILL INDEX
  VSB    - VISIBILITY IN MILES
  HX     - HEAT INDEX
  TC     - TEMPERATURE IN CELSIUS
  VRB    - VARIABLE WIND DIRECTION
  N/A    - NOT AVAILABLE




Office: GYX ASUS41 KGYX 191305 RWRGYX WEATHER ROUNDUP FOR MAINE AND NEW HAMPSHIRE NATIONAL WEATHER SERVICE GRAY ME 800 AM EST MON FEB 19 2018 MEZ002-005-006-010-012-015-018-020-021-024-026-027-029-191400- MAINE CITY SKY/WX TMP DP RH WIND PRES REMARKS PORTLAND FAIR 21 18 88 CALM 30.53F SANFORD FAIR 19 16 88 S3 30.51F BAR HARBOR FAIR 23 20 88 NW3 30.56R WISCASSET FAIR 20 19 96 CALM 30.55S ROCKLAND FAIR 30 27 88 SE3 30.53F FRYEBURG FAIR 16 15 96 CALM 30.49F LEWISTONAUBURN FAIR 16 14 92 NE5 30.51F AUGUSTA FAIR 24 19 81 SW5 30.52R WATERVILLE FAIR 21 19 92 SW3 30.47S BANGOR FAIR 13 12 96 CALM 30.53S GREENVILLE N/A 23 16 74 SE8 30.38F MILLINOCKET FAIR 8 7 95 CALM 30.50F HOULTON FAIR 21 15 78 S6 30.48F PRESQUE ISLE PTSUNNY 16 14 92 CALM 30.47S FRENCHVILLE CLOUDY 15 12 88 SE9 30.39F CARIBOU CLOUDY 16 11 80 CALM 30.44S $$ NHZ002-005-008-009-011-012-014-191400- NEW HAMPSHIRE CITY SKY/WX TMP DP RH WIND PRES REMARKS PORTSMOUTH MOSUNNY 22 20 93 CALM 30.52F ROCHESTER FAIR 20 18 92 CALM 30.51F NASHUA FAIR 20 18 92 E3 30.53F MANCHESTER FAIR 21 18 88 CALM 30.51F CONCORD FAIR 18 17 96 CALM 30.51F LACONIA FAIR 19 16 88 CALM 30.49F PLYMOUTH FAIR 10 8 92 CALM 30.50S BERLIN FAIR 4 2 91 CALM 30.39F WHITEFIELD FAIR 4 3 96 CALM 30.39F JAFFREY FAIR 17 16 95 CALM 30.45F KEENE FAIR 16 15 96 CALM 30.49F LEBANON FAIR 16 13 88 CALM 30.44S MT WASHINGTON NOT AVBL $$ VTZ005-007-008-191400- VERMONT CITY SKY/WX TMP DP RH WIND PRES REMARKS ST JOHNSBURY N/A 11 10 96 MISG 30.42S MONTPELIER FAIR 26 19 74 S7 30.40S BURLINGTON PTSUNNY 33 20 58 S17G29 30.35R $$ MAZ007-012-024-CTZ003-RIZ002-NYZ038-NYZ072-191400- SOUTHERN NEW ENGLAND AND NY CITY SKY/WX TMP DP RH WIND PRES REMARKS BOSTON FAIR 31 26 82 S6 30.56S WORCESTER FAIR 28 21 75 S10 30.49S WCI 19 NANTUCKET FAIR 40 36 86 S12 30.60S PROVIDENCE FAIR 31 27 85 CALM 30.57F HARTFORD FAIR 21 18 88 CALM 30.53R ALBANY FAIR 33 20 58 S13G24 30.43F NEW YORK CITY PTSUNNY 40 36 86 S6 30.52S $$ ANZ081-ANZ082-ANZ150-NHZ014-MEZ023>029-191400- COASTAL MARINE OBSERVATIONS STATION/POSITION TIME TEMP WIND PRES WAVE AIR SEA DIR/SP/G HT/PER (UTC) (F) (DEG/KT/KT) (MB) (FT/S) MOUNT DESERT ROC 1300 39 170/ 18/ 20 1034.6F MATINICUS ROCK 1200 38 170/ 18/ 19 1033.6F ISLE OF SHOALS 1200 35 220/ 8/ 9 1034.1R JEFFREYS LEDGE 1236 42 N/A 5/ 9 GEORGES BANK BUO 1150 40 58 1029.5 20/11 $$ .............KEY.............. WCI - WIND CHILL TC - TEMPERATURE IN CELSIUS VSB - VISIBILITY IN MILES HX - HEAT INDEX FAIR- INDICATES FEW OR NO CLOUDS BELOW 12,000 FT, WITH NO SIGNIFICANT WEATHER AND/OR OBSTRUCTIONS TO VISIBILITY. ASUS41 KGYX 191310 RWRGYX WEATHER ROUNDUP FOR MAINE AND NEW HAMPSHIRE NATIONAL WEATHER SERVICE GRAY ME 800 AM EST MON FEB 19 2018 MEZ002-005-006-010-012-015-018-020-021-024-026-027-029-191400- MAINE CITY SKY/WX TMP DP RH WIND PRES REMARKS PORTLAND FAIR 21 18 88 CALM 30.53F SANFORD FAIR 19 16 88 S3 30.51F BAR HARBOR FAIR 23 20 88 NW3 30.56R WISCASSET FAIR 20 19 96 CALM 30.55S ROCKLAND FAIR 30 27 88 SE3 30.53F FRYEBURG FAIR 16 15 96 CALM 30.49F LEWISTONAUBURN FAIR 16 14 92 NE5 30.51F AUGUSTA FAIR 24 19 81 SW5 30.52R WATERVILLE FAIR 21 19 92 SW3 30.47S BANGOR FAIR 13 12 96 CALM 30.53S GREENVILLE N/A 23 16 74 SE8 30.38F MILLINOCKET FAIR 8 7 95 CALM 30.50F HOULTON FAIR 21 15 78 S6 30.48F PRESQUE ISLE PTSUNNY 16 14 92 CALM 30.47S FRENCHVILLE CLOUDY 15 12 88 SE9 30.39F CARIBOU CLOUDY 16 11 80 CALM 30.44S $$ NHZ002-005-008-009-011-012-014-191400- NEW HAMPSHIRE CITY SKY/WX TMP DP RH WIND PRES REMARKS PORTSMOUTH MOSUNNY 22 20 93 CALM 30.52F ROCHESTER FAIR 20 18 92 CALM 30.51F NASHUA FAIR 20 18 92 E3 30.53F MANCHESTER FAIR 21 18 88 CALM 30.51F CONCORD FAIR 18 17 96 CALM 30.51F LACONIA FAIR 19 16 88 CALM 30.49F PLYMOUTH FAIR 10 8 92 CALM 30.50S BERLIN FAIR 4 2 91 CALM 30.39F WHITEFIELD FAIR 4 3 96 CALM 30.39F JAFFREY FAIR 17 16 95 CALM 30.45F KEENE FAIR 16 15 96 CALM 30.49F LEBANON FAIR 16 13 88 CALM 30.44S MT WASHINGTON MOSUNNY 18 -4 38 SW38G56 N/A WCI -4 $$ VTZ005-007-008-191400- VERMONT CITY SKY/WX TMP DP RH WIND PRES REMARKS ST JOHNSBURY N/A 11 10 96 MISG 30.42S MONTPELIER FAIR 26 19 74 S7 30.40S BURLINGTON PTSUNNY 33 20 58 S17G29 30.35R $$ MAZ007-012-024-CTZ003-RIZ002-NYZ038-NYZ072-191400- SOUTHERN NEW ENGLAND AND NY CITY SKY/WX TMP DP RH WIND PRES REMARKS BOSTON FAIR 31 26 82 S6 30.56S WORCESTER FAIR 28 21 75 S10 30.49S WCI 19 NANTUCKET FAIR 40 36 86 S12 30.60S PROVIDENCE FAIR 31 27 85 CALM 30.57F HARTFORD FAIR 21 18 88 CALM 30.53R ALBANY FAIR 33 20 58 S13G24 30.43F NEW YORK CITY PTSUNNY 40 36 86 S6 30.52S $$ ANZ081-ANZ082-ANZ150-NHZ014-MEZ023>029-191400- COASTAL MARINE OBSERVATIONS STATION/POSITION TIME TEMP WIND PRES WAVE AIR SEA DIR/SP/G HT/PER (UTC) (F) (DEG/KT/KT) (MB) (FT/S) MOUNT DESERT ROC 1300 39 170/ 18/ 20 1034.6F MATINICUS ROCK 1200 38 170/ 18/ 19 1033.6F ISLE OF SHOALS 1200 35 220/ 8/ 9 1034.1R JEFFREYS LEDGE 1236 42 N/A 5/ 9 GEORGES BANK BUO 1150 40 58 1029.5 20/11 $$ .............KEY.............. WCI - WIND CHILL TC - TEMPERATURE IN CELSIUS VSB - VISIBILITY IN MILES HX - HEAT INDEX FAIR- INDICATES FEW OR NO CLOUDS BELOW 12,000 FT, WITH NO SIGNIFICANT WEATHER AND/OR OBSTRUCTIONS TO VISIBILITY.
Office: OKX ASUS41 KOKX 191305 RWROKX Regional Weather Roundup National Weather Service New York NY 800 AM EST MON FEB 19 2018 Note: "FAIR" indicates few or no clouds below 12,000 feet with no significant weather and/or obstructions to visibility. NYZ071-072-176-178-NJZ106-104-191400- New York City Metro Area CITY SKY/WX TMP DP RH WIND PRES REMARKS Central Park FAIR 41 31 67 S6 30.53S Bronx Bot Gard N/A 37 32 81 SE2 30.51F Bronx Lehman C N/A 39 32 75 SE3 N/A LaGuardia Arpt PTSUNNY 40 36 86 S6 30.52S Queens College N/A 39 34 81 S7 N/A WCI 34 Kennedy Intl PTSUNNY 37 36 96 SE5 30.53S WCI 33 Breezy Point N/A 37 N/A N/A S2 N/A Brooklyn Coll N/A 39 32 75 S7 N/A WCI 34 Staten Island N/A 37 32 81 S2 N/A Newark/Liberty PTSUNNY 37 32 82 S5 30.52S WCI 33 Teterboro FAIR 35 30 82 N3 30.51F $$ NYZ177-179-078>081-191400- Long Island New York CITY SKY/WX TMP DP RH WIND PRES REMARKS Jones Beach N/A 37 N/A N/A CALM N/A Wantagh N/A 37 36 93 SE3 N/A Hempstead NOT AVBL Matinecock Pt N/A 36 N/A N/A E2 N/A Farmingdale FAIR 34 32 92 CALM 30.54R MacArthur/ISP FAIR 37 36 96 CALM 30.54R Shirley FAIR 37 34 89 SE5 30.55S WCI 33 Mt Sinai Harb N/A N/A N/A N/A CALM N/A Westhampton FAIR 38 33 82 S5 30.56S WCI 34 East Hampton FAIR 40 35 83 S7 30.55S WCI 35 Southold N/A 39 34 81 S8 N/A WCI 34 Montauk N/A 42 36 79 VRB6 30.56S $$ NYZ052-065-067-191400- Hudson Valley CITY SKY/WX TMP DP RH WIND PRES REMARKS White Plains FAIR 30 27 88 CALM 30.51R Larchmont Harb N/A N/A N/A N/A N3 N/A Croton On Huds N/A N/A N/A N/A MISG N/A Somers N/A 32 27 80 S5 N/A WCI 27 Brewster N/A 28 25 86 S1 N/A Newburgh SUNNY 27 25 93 CALM 30.50S Montgomery FAIR 20 19 96 CALM 30.49R Otisville N/A 23 19 86 SW1 N/A Warwick N/A 32 27 80 W2 N/A Suffern N/A 30 28 93 NW1 N/A Poughkeepsie FAIR 23 21 92 CALM 30.51R Albany FAIR 33 20 58 S13G24 30.43F WCI 24 $$ NJZ001-105-106-008-010-013-015-019>022-104-191400- New Jersey CITY SKY/WX TMP DP RH WIND PRES REMARKS Newark/Liberty PTSUNNY 37 32 82 S5 30.52S WCI 33 Teterboro FAIR 35 30 82 N3 30.51F Caldwell FAIR 27 25 92 CALM 30.53S Somerville FAIR 26 25 96 CALM 30.50R Linden FAIR 36 31 82 CALM 30.52F Perth Amboy N/A 37 N/A N/A E2 N/A Sussex FAIR 21 21 100 CALM 30.48R Andover N/A 25 23 92 CALM 30.49R Trenton FAIR 36 32 85 SE5 30.50S WCI 32 Millville FAIR 34 32 92 CALM 30.51S FOG Atlantic City FAIR 38 35 89 CALM 30.53R Wrightstown PTSUNNY 33 31 93 S3 30.49 Toms River FAIR 32 30 92 CALM 30.54R Belmar FAIR 37 36 96 CALM 30.54R $$ PAZ047>061-062-071-191400- Eastern Pennsylvania CITY SKY/WX TMP DP RH WIND PRES REMARKS Philadelphia PTSUNNY 38 33 82 CALM 30.52R Allentown CLOUDY 32 25 75 CALM 30.49R Scranton PTSUNNY 35 26 69 VRB5 30.42R WCI 31 $$ CTZ002-004>006-009-010-012-RIZ004-006-007-MAZ004-011-015-191400- Southern New England In CT CITY SKY/WX TMP DP RH WIND PRES REMARKS Bradley Intl FAIR 21 18 88 CALM 30.53R Hartford FAIR 26 23 88 NE5 30.54S WCI 20 Danbury FAIR N/A N/A N/A CALM 30.52S Wtrbury/Oxford FAIR 32 28 85 S9 30.50S WCI 24 Norwalk Harbor N/A N/A N/A N/A N2 N/A Bridgeport FAIR 31 27 85 NE3 30.54S Meriden FAIR 22 21 96 CALM 30.53F New Haven FAIR 29 29 100 CALM 30.54S Chester FAIR 36 30 80 S7 30.53S WCI 30 Groton FAIR 32 28 85 CALM 30.56S Willimantic FAIR 23 20 88 CALM 30.55F In RI CITY SKY/WX TMP DP RH WIND PRES REMARKS Providence FAIR 31 27 85 CALM 30.57F Block Island FAIR 40 34 79 S12 30.57S WCI 33 Westerly FAIR 31 28 89 CALM 30.57F In MA CITY SKY/WX TMP DP RH WIND PRES REMARKS Boston FAIR 31 26 82 S6 30.56S WCI 25 Worcester FAIR 28 21 75 S10 30.49S WCI 19 Westfield FAIR 20 20 100 CALM 30.52S Provincetown FAIR 38 36 92 S12 30.58F WCI 30 Nantucket FAIR 40 36 86 S12 30.60S WCI 33 $$ ANZ330-335-338-340-345-350-353-355-191400- Coastal Marine Observations STATION/POSITION TIME SKY/WX TEMP WIND PRES VSBY WAVE AIR SEA DIR/SP/G HT/PER (UTC) (F) (DEG/KT/KT) (MB) (MI) (FT/S) NY Harb Entrance 1150 39 39 110/ 2/ 4 1033.2 1/ 8 20 S Fire Island 1150 43 42 180/ 10/ 12 1033.8 2/ 3 15 E Barnegat Li 1230 40 N/A 2/10 Hudson Canyon 1150 46 47 150/ 12/ 14 1033.7 2/ 9 Kings Point 1230 36 36 190/ 2/ 2 1034.7 Execution Rocks NOT AVBL Western LI Sound NOT AVBL Central LI Sound 1230 38 150/ 4/ 4 N/A 0 Robbins Reef 1230 37 160/ 4/ 5 1034.2 $$ >>>>>>>>>>>>>>>>>>>>>>>>>>>> KEY <<<<<<<<<<<<<<<<<<<<<<<<<<< > < > SKY/WX - Sky Condition/Present Weather < > TMP - Temperature in Fahrenheit < > DP - Dew Point in Fahrenheit < > RH - Relative Humidity in Percent < > WIND - Direction (from) and Speed in MPH < > PRES - Mean Sea Level Pressure (inches of Hg) < > WCI - Wind Chill Index < > VSB - Visibility in Miles < > HX - Heat Index < > TC - Temperature in Celsius < > VRB - Varibale Wind Direction < > < >>>>>>>>>>>>>>>>>>>>>>>>>>>> KEY <<<<<<<<<<<<<<<<<<<<<<<<<<<